www.pogodaiklimat.ru

Погода и климат >> Архив погоды >> Перу >> Puerto Maldonado


ПОГОДА в Puerto Maldonado

  • Прогноз погоды в Puerto Maldonado
  • Монитор погоды в Puerto Maldonado
  • Климат города

АРХИВ ПОГОДЫ в Puerto Maldonado

Время (UTC), дата Ветер
(напр.,м/с)
 
Видим.   Явления Облачность Т
(С)
Тd
(С)
f
(%)
Тe
(С)
Тes
(С)
Комфортность P
(гПа)
Po
(гПа)
Тmin
(С)
Tmax
(С)
R
(мм)
R24
(мм)
S
(см)
12 14.04 10 км морось н/о +22.5 +21.7 95 +30 +30 очень
душно
1015.3 992.3 +20.9 7
15 14.04 нст 3 5000 м морось 9/9 400 м
[Frnb]
+24.5 +22.4 88 +32 +33 очень
душно
1016.4 993.5
18 14.04 нст 3 10 км {морось} 6/6 450 м
[Cu hum]
+28.9 +23.7 74 +40 +45 очень
душно
1012.5 990.0 1
21 14.04 нст 2 10 км 3/3 450 м
[Cu hum]
+28.8 +23.6 74 +39 +41 очень
душно
1009.8 987.4
00 15.04 штиль 0 10 км ясно +23.1 +22.4 96 +32 +32 очень
душно
1011.2 988.3 +29.6
15 15.04 нст 4 10 км 6/6 300 м
[Cu hum]
+26.8 +21.0 71 +34 +38 очень
душно
1016.8 994.0
18 15.04 нст 3 10 км 4/4 360 м
[Cu hum]
+29.3 +20.9 61 +37 +45 очень
душно
1015.4 992.8
21 15.04 нст 3 10 км 1/0
[Ac trans]
+28.5 +24.0 77 +40 +42 очень
душно
1012.8 990.3
12 16.04 нст 1 10 км 5/5 360 м
[Frnb]
+20.7 +20.4 98 +27 +28 душно 1017.4 994.2 +18.4
15 16.04 нст 4 10 км 1/1 400 м
[Cu hum]
+27.1 +21.0 69 +34 +44 очень
душно
1017.0 994.2
18 16.04 нст 4 10 км 6/6 360 м
[Cu hum]
+29.5 +20.3 58 +36 +40 очень
душно
1014.3 991.8
21 16.04 нст 2 10 км 3/3 450 м
[Cu hum]
+29.0 +20.6 61 +36 +38 очень
душно
1011.5 989.0
12 17.04 штиль 0 10 км ясно +22.6 +20.5 88 +29 +32 очень
душно
1014.0 991.0 +19.0
15 17.04 нст 2 10 км 6/6 360 м
[Cu hum]
+28.4 +22.1 69 +37 +44 очень
душно
1014.8 992.2
18 17.04 нст 2 10 км 5/5 360 м
[Cu hum]
+31.1 +22.3 60 +40 +49 очень
душно
1011.9 989.6
21 17.04 нст 1 10 км ясно +30.9 +21.6 58 +39 +42 очень
душно
1009.1 986.8
12 18.04 нст 1 10 км ясно +23.5 +21.8 90 +30 +32 очень
душно
1014.6 991.7 +19.4
15 18.04 нст 3 10 км 5/5 300 м
[Cu hum]
+28.1 +23.6 77 +39 +45 очень
душно
1015.0 992.4
18 18.04 нст 3 10 км 5/5 400 м
[Cu hum]
+30.5 +21.5 59 +39 +45 очень
душно
1011.7 989.4
21 18.04 нст 2 10 км 3/3 600 м
[Cu med, cong]
+30.5 +22.6 63 +40 +42 очень
душно
1008.6 986.3
00 19.04 нст 1 8000 м ясно +23.6 +21.9 90 +30 +30 очень
душно
1011.0 988.2 +31.9
12 19.04 нст 1 10 км 6/6 900 м
[Sc]
+23.0 +22.0 94 +31 +32 очень
душно
1014.7 991.7 +20.6
15 19.04 нст 2 10 км ясно +28.7 +22.6 70 +38 +54 опасность
солнечного
удара
1014.8 992.2
18 19.04 нст 1 10 км 6/6 450 м
[Cu hum]
+30.1 +23.0 66 +40 +48 очень
душно
1011.8 989.4
21 19.04 10 км н/о +30.3 +21.8 60 +39 +41 очень
душно
1008.7 986.4
12 20.04 нст 1 10 км 1/1 600 м
[Cu hum]
+25.0 +22.9 88 +33 +35 очень
душно
1013.2 990.4 +21.6
15 20.04 нст 2 10 км 4/4 450 м
[Cu hum]
+30.4 +23.5 67 +41 +51 опасность
перегрева
1013.2 990.8
18 20.04 нст 3 10 км 1/1 450 м
[Cu hum]
+32.1 +23.0 59 +42 +54 опасность
перегрева
1009.8 987.6
21 20.04 нст 2 10 км 1/1 600 м
[Cu hum]
+31.1 +22.9 62 +41 +44 опасность
перегрева
1007.0 984.8

 

Местоположение метеостанции Puerto Maldonado (Перу): широта -12.60 долгота -69.21 высота над уровнем моря 201 м.

В архиве по умолчанию представлена погода в Puerto Maldonado за последнюю неделю. Архивные данные за месяц целиком и за предыдущие месяцы, начиная с января 2011 года, Вы можете получить, выбрав интересующий диапазон дат из раскрывающегося списка и нажав кнопку "Ввод!".


*Определитесь, кто Вы:
робот инопланетянин человек

Внимание! Время в таблицах - всемирное. Для получения местного времени необходимо прибавить поправку, которая в Puerto Maldonado равна -5 ч.

Смотрите также архив погоды в соседних городах и на ближайших метеорологических станциях:

Погода в Cobija (Боливия) (181 км)
Погода в Epitaciolandia (Бразилия) (183 км)
Погода в Rurrenabaque (Боливия) (273 км)
Погода в Reyes (Боливия) (275 км)
Погода в Santa Rosa (Боливия) (305 км)
Погода в Cuzco (Перу) (312 км)
Погода в Rio Branco (Бразилия) (315 км)
Погода в Rio Branco (Бразилия) (328 км)
Погода в Juliaca (Перу) (336 км)
Погода в San Borja (Боливия) (357 км)

Пояснения к столбцам:

Ветер - указаны скорость ветра в м/с - средняя за 10 мин, порывы в срок и между сроками (в фигурных скобках) и направление, откуда дует ветер: С - северный, СВ - северо-восточный, В - восточный, ЮВ - юго-восточный, Ю - южный, ЮЗ - юго-западный, З - западный, СЗ - северо-западный.
Видимость - горизонтальная дальность видимости в метрах или километрах. При видимости от 1 до 10 км при отсутствии осадков обычно наблюдается дымка, при ухудшении видимости до 1 км и менее - туман. В сухую погоду видимость может ухудшаться дымом, пылью или мглою.
Явления - указаны атмосферные явления, наблюдавшиеся в срок или в последний час перед сроком; фигурными скобками обозначены явления, наблюдавшиеся между сроками (за 1-3 часа до срока); квадратными скобками обозначены град или гололедные отложения с указанием их диаметра в мм.
Облачность - указаны через наклонную черту общая и нижняя облачность в баллах и высота нижней границы облаков в метрах; квадратными скобками обозначены формы облаков: Ci - перистые, Cs - перисто-слоистые, Cc - перисто-кучевые, Ac - высококучевые, As - высокослоистые, Sc - слоисто-кучевые, Ns - слоисто-дождевые, Cu - кучевые, Cb - кучево-дождевые. Подробнее классификацию облаков см. в Атласе облаков (PDF).
T - Температура воздуха - температура, измеренная на высоте 2 м над землей.
Td - Температура точки росы - температура, при понижении до которой содержащийся в воздухе водяной пар достигнет насыщения.
f - Относительная влажность воздуха - влажноcть воздуха, измеренная на высоте 2 м над землей.
Te - Эффективная температура - температура, которую ощущает одетый по сезону человек в тени. Характеристика душности погоды. При расчете учитывается влияние влажности воздуха и скорости ветра на теплоощущения человека.
Tes - Эффективная температура на солнце - температура, которую ощущает человек, с поправкой на солнечный нагрев. Характеристика знойности погоды. Зависит от высоты солнца над горизонтом, облачности и скорости ветра. Ночью, в пасмурную погоду, а также при ветре 12 м/с и более поправка равна нулю.
P - Атмосферное давление - приведенное к уровню моря атмосферное давление.
Po - Атмосферное давление - измеренное на уровне метеостанции атмосферное давление.
Tmin - Минимальная температура - минимум температуры воздуха на высоте 2 м над землей.
Tmax - Максимальная температура - максимум температуры воздуха на высоте 2 м над землей.
R - Количество осадков - Количество выпавших осадков за период времени, мм. При наведении курсора мыши на число - период времени, за который выпало указанное количество осадков.
R24 - Количество осадков - Количество выпавших осадков за 24 часа, мм.
S - Снежный покров - Высота снежного покрова, см. При наведении курсора мыши на число - состояние снежного покрова и степень покрытия местности в баллах.